Location: Festilli
(46.4000°N, 11.6667°E)
Time: 14:57:37
(UTC+00:00)

Okean 1-7 - Pass Details

Date: 03 March 2021
Orbit: 589 x 619 km, 82.5° (Epoch: 20 April)

Event Time Altitude Azimuth Distance (km) Brightness Sun altitude
Rises 17:57:24 0° 359° (N) 2,899 6.5 -10.3°
Reaches altitude 10° 17:59:51 10° 9° (N) 1,984 5.6 -10.7°
Maximum altitude 18:03:49 33° 73° (ENE) 1,046 3.7 -11.4°
Drops below altitude 10° 18:07:43 10° 138° (SE) 1,954 5.2 -12.1°
Enters shadow 18:08:40 - 143° (SE) 2,301 5.6 -12.2°
